sat.trackr.live / text

‹ back to catalog

ONEWEB-0314

NORAD 49100 · 2021-075AB

PAYLOAD ACTIVE UNKNOWN

§ Identity

Operator
Country
UK
Launch date
2021-08-21
Launch site
TYMSC
Launch vehicle
Mass (kg)
RCS (m²)

Purposes: comms

External: N2YO · Heavens-Above · Gunter

§ Orbital elements

Epoch: 2026-09-11T15:35:19.040352Z

Period
109.29 min
Inclination
87.9214°
Eccentricity
0.0001612
Mean motion
13.17650037 rev/d
Perigee alt
1,192.5 km
Apogee alt
1,194.9 km
Semi-major
7,571.8 km
B*
1.3641e-4
RAAN
348.6875°
Arg perigee
110.8309°
Mean anomaly
249.2996°
Rev number
24,495

§ Raw data

ONEWEB-03141 49100U 21075AB  26254.64952593  .00000066  00000+0  13641-3 0  99902 49100  87.9214 348.6875 0001612 110.8309 249.2996 13.17650037244958

JSON: /api/v1/satellites/49100 · /tle

For live sub-satellite position, see the globe view (requires WebGL).

§ Visibility from observer

Set your observer location to see the next 7 days of passes ≥ 10°. The values pass through the URL so the page stays shareable.

No JS? Fill the form by hand. The geolocation button needs JavaScript.